Molokai, HI

3:11 PM HST on April 20, 2018 (GMT -1000)
Molokai

Weather History for PHMK - March, 2013

Change the Weather History Date:

Monday, March 4, 2013

  Actual Average Record
Temperature  
Mean Temperature 72 °F -  
Max Temperature 75 °F 77 °F 84 °F (1977)
Min Temperature 68 °F 64 °F 46 °F (1987)
Cooling Degree Days 6    
Growing Degree Days 22 (Base 50)    
Moisture  
Dew Point 55 °F    
Average Humidity 58    
Maximum Humidity 68    
Minimum Humidity 48    
Precipitation  
Precipitation 0.00 in - - ()
Sea Level Pressure  
Sea Level Pressure 30.17 in    
Wind  
Wind Speed 16 mph (NE)    
Max Wind Speed 21 mph    
Max Gust Speed 33 mph    
Visibility 10 miles    
Events      
Averages and records for this station are not official NWS values.
T = Trace of Precipitation, MM = Missing Value Source: NWS Daily Summary

Daily Weather History Graph

Daily Weather History Graph

Search for Another Location

Airport or City:

Astronomy

Mar. 04, 2013 Rise Set
Actual Time 6:46 AM HST 6:34 PM HST
Civil Twilight 6:23 AM HST 6:56 PM HST
Nautical Twilight 5:58 AM HST 7:22 PM HST
Astronomical Twilight 5:32 AM HST 7:47 PM HST
Moon 12:37 AM HST (3/4) 11:57 AM HST (3/4)
Length of Visible Light 12h 32m
Length of Day
11h 48m
Waning Gibbous, 50% of the Moon is Illuminated
Mar 4
Waning Gibbous
Mar 11
New
Mar 19
First Quarter
Mar 26
Full
Apr 2
Last Quarter

Hourly Weather History & Observations

Time (HST) Temp. Dew Point Humidity Pressure Visibility Wind Dir Wind Speed Gust Speed Precip Events Conditions
12:54 AM 69.1 °F 55.0 °F 61% 30.19 in 10.0 mi NE 15.0 mph 23.0 mph N/A   Mostly Cloudy
1:54 AM 69.1 °F 54.0 °F 58% 30.18 in 10.0 mi NE 17.3 mph 25.3 mph N/A   Scattered Clouds
2:54 AM 69.1 °F 54.0 °F 58% 30.17 in 10.0 mi NE 17.3 mph 26.5 mph N/A   Mostly Cloudy
3:54 AM 68.0 °F 53.1 °F 59% 30.17 in 10.0 mi NE 12.7 mph 19.6 mph N/A   Mostly Cloudy
4:54 AM 68.0 °F 51.1 °F 55% 30.18 in 10.0 mi NE 13.8 mph 19.6 mph N/A   Overcast
5:54 AM 69.1 °F 55.0 °F 61% 30.19 in 10.0 mi NE 17.3 mph 24.2 mph N/A   Overcast
6:54 AM 68.0 °F 55.9 °F 65% 30.20 in 10.0 mi ENE 16.1 mph 21.9 mph N/A   Mostly Cloudy
7:54 AM 70.0 °F 53.1 °F 55% 30.21 in 10.0 mi ENE 12.7 mph 21.9 mph N/A   Scattered Clouds
8:54 AM 72.0 °F 51.1 °F 48% 30.21 in 10.0 mi ENE 18.4 mph 28.8 mph N/A   Partly Cloudy
9:54 AM 73.0 °F 55.0 °F 53% 30.20 in 10.0 mi NE 19.6 mph 32.2 mph N/A   Scattered Clouds
10:54 AM 75.0 °F 55.0 °F 50% 30.19 in 10.0 mi NE 18.4 mph 33.4 mph N/A   Partly Cloudy
11:54 AM 75.0 °F 57.0 °F 53% 30.19 in 10.0 mi NE 17.3 mph 31.1 mph N/A   Scattered Clouds
12:54 PM 75.9 °F 55.0 °F 48% 30.16 in 10.0 mi NNE 16.1 mph 27.6 mph N/A   Clear
1:54 PM 75.9 °F 57.0 °F 52% 30.14 in 10.0 mi NE 20.7 mph 27.6 mph N/A   Partly Cloudy
2:54 PM 75.9 °F 57.9 °F 54% 30.12 in 10.0 mi NE 17.3 mph 32.2 mph N/A   Partly Cloudy
3:54 PM 73.9 °F 57.9 °F 57% 30.12 in 10.0 mi ENE 20.7 mph 28.8 mph N/A   Partly Cloudy
4:54 PM 73.0 °F 57.9 °F 59% 30.13 in 10.0 mi NE 15.0 mph 26.5 mph N/A   Scattered Clouds
5:54 PM 71.1 °F 57.9 °F 63% 30.14 in 10.0 mi NNE 15.0 mph 25.3 mph N/A   Scattered Clouds
6:54 PM 69.1 °F 57.9 °F 68% 30.15 in 10.0 mi NNE 10.4 mph 23.0 mph N/A   Clear
7:54 PM 69.1 °F 57.0 °F 65% 30.15 in 10.0 mi NE 15.0 mph 26.5 mph N/A   Scattered Clouds
9:54 PM 68.0 °F 57.0 °F 68% 30.17 in 10.0 mi NE 15.0 mph 23.0 mph N/A   Mostly Cloudy
10:54 PM 68.0 °F 55.9 °F 65% 30.17 in 10.0 mi NE 11.5 mph 21.9 mph N/A   Scattered Clouds
11:54 PM 68.0 °F 54.0 °F 61% 30.16 in 10.0 mi NE 15.0 mph 24.2 mph N/A   Partly Cloudy